Home   Weather   Lund   Past weeks

Flag for Sweden Past Weather in Lund, Sweden — Yesterday and Last 2 Weeks

Now
34 °F

Fog.


Feels Like: 34 °F
Forecast: 30 / 37 °F
Wind: 2 mph from Southwest

Location: Malmo / Sturup

Current Time: Jan 22, 2017 at 7:23:11 am

Latest Report: Jan 22, 2017 at 6:50 am


Visibility: 1 mi

Pressure: 30.39 "Hg

Humidity: 100%

Dew Point: 34 °F

Location of LundLocation

Past Weather in Lund — Graph

°F

Lund Temperature Yesterday

Maximum temperature yesterday: 39 °F (at 2:50 am)
Minimum temperature yesterday: 32 °F (at 6:50 pm)
Average temperature yesterday: 35 °F

High & Low Weather Summary for the Past Weeks

 TemperatureHumidityPressure
High45 °F (Jan 20, 12:20 pm)100% (Jan 7, 9:20 am)30.63 "Hg (Jan 7, 9:20 am)
Low18 °F (Jan 16, 6:50 am)69% (Jan 7, 6:20 am)29.09 "Hg (Jan 11, 5:50 pm)
Average32 °F93%30.04 "Hg
* Reported Jan 7 6:20 am — Jan 22 6:20 am, Lund, Weather by CustomWeather, © 2017

Note: Actual official high and low records may vary slightly from our data, if they occured in-between our weather recording intervals... More about our weather records

Advertising

Lund Weather History for the Previous 24 Hours

Scroll right to see more
 ConditionsComfort  
Time TempWeatherWind HumidityBarometerVisibility
6:20 am
Sun, Jan 22
34 °FFog.No wind100%30.39 "Hg1 mi
5:50 am32 °FLow clouds.2 mph100%30.39 "Hg1 mi
5:20 am34 °FFog.5 mph100%30.39 "Hg1 mi
4:50 am32 °FFog.6 mph100%30.39 "Hg1 mi
4:20 am32 °FFog.6 mph100%30.39 "Hg1 mi
3:50 am32 °FLow clouds.5 mph100%30.42 "Hg1 mi
3:20 am34 °FFog.6 mph100%30.42 "Hg1 mi
2:50 am34 °FFog.3 mph100%30.42 "Hg1 mi
2:20 am32 °FFog.3 mph100%30.42 "Hg0 mi
1:50 am32 °FFog.3 mph100%30.42 "Hg0 mi
1:20 am32 °FFog.6 mph100%30.42 "Hg0 mi
12:50 am34 °FFog.5 mph100%30.42 "Hg0 mi
12:20 am32 °FFog.3 mph100%30.42 "Hg0 mi
11:50 pm
Sat, Jan 21
32 °FFog.6 mph100%30.42 "Hg0 mi
11:20 pm32 °FFog.5 mph100%30.45 "Hg0 mi
10:50 pm32 °FFog.3 mph100%30.45 "Hg0 mi
10:20 pm32 °FFog.6 mph100%30.42 "Hg0 mi
9:50 pm32 °FIce fog.3 mph100%30.42 "Hg0 mi
9:20 pm32 °FIce fog.3 mph100%30.42 "Hg0 mi
8:50 pm32 °FIce fog.3 mph100%30.42 "Hg0 mi
8:20 pm32 °FIce fog.2 mph100%30.42 "Hg0 mi
7:50 pm32 °FIce fog.2 mph100%30.42 "Hg0 mi
7:20 pm32 °FIce fog.1 mph100%30.42 "Hg0 mi
6:50 pm32 °FFog.2 mph100%30.42 "Hg0 mi
6:20 pm34 °FFog.2 mph100%30.42 "Hg0 mi
5:50 pm34 °FFog.3 mph100%30.42 "Hg0 mi
5:20 pm34 °FFog.2 mph100%30.42 "Hg0 mi
4:50 pm34 °FFog.5 mph100%30.42 "Hg0 mi
4:20 pm34 °FFog.3 mph100%30.39 "Hg0 mi
3:50 pm34 °FFog.5 mph100%30.39 "Hg0 mi
3:20 pm36 °FFog.6 mph100%30.39 "Hg0 mi
2:50 pm36 °FFog.5 mph100%30.39 "Hg0 mi
2:20 pm36 °FFog.5 mph100%30.42 "Hg0 mi
1:50 pm36 °FFog.6 mph100%30.42 "Hg0 mi
1:20 pm36 °FFog.7 mph100%30.42 "Hg0 mi
12:50 pm36 °FFog.6 mph100%30.42 "Hg0 mi
12:20 pm36 °FFog.7 mph100%30.42 "Hg0 mi
11:50 am36 °FFog.6 mph100%30.42 "Hg0 mi
11:20 am36 °FFog.8 mph100%30.42 "Hg0 mi
10:50 am36 °FFog.6 mph100%30.42 "Hg0 mi
10:20 am36 °FFog.7 mph100%30.42 "Hg0 mi
9:50 am36 °FFog.7 mph100%30.42 "Hg0 mi
9:20 am36 °FFog.7 mph100%30.42 "Hg0 mi
8:50 am36 °FFog.9 mph100%30.39 "Hg0 mi
8:20 am36 °FFog.9 mph100%30.39 "Hg0 mi
7:50 am36 °FFog.9 mph100%30.39 "Hg0 mi
7:20 am37 °FFog.9 mph100%30.39 "Hg0 mi
Weather by CustomWeather, © 2017

See weather overviewHow to use our weather pages